sat.trackr.live / text

‹ back to catalog

STARLINK-32486

NORAD 61854 · 2024-202K

PAYLOAD ACTIVE UNKNOWN

§ Identity

Operator
Country
US
Launch date
2024-11-07
Launch site
AFETR
Launch vehicle
Mass (kg)
RCS (m²)

Purposes: comms

External: N2YO · Heavens-Above · Gunter

§ Orbital elements

Epoch: 2026-09-21T06:47:13.161408Z

Period
94.27 min
Inclination
43.0000°
Eccentricity
0.0001145
Mean motion
15.27587118 rev/d
Perigee alt
482.2 km
Apogee alt
483.8 km
Semi-major
6,861.2 km
B*
4.0632e-5
RAAN
213.1593°
Arg perigee
273.7653°
Mean anomaly
86.3068°
Rev number
10,525

§ Raw data

STARLINK-324861 61854U 24202K   26264.28279122  .00000856  00000+0  40632-4 0  99942 61854  43.0000 213.1593 0001145 273.7653  86.3068 15.27587118105250

JSON: /api/v1/satellites/61854 · /tle

For live sub-satellite position, see the globe view (requires WebGL).

§ Visibility from observer

Set your observer location to see the next 7 days of passes ≥ 10°. The values pass through the URL so the page stays shareable.

No JS? Fill the form by hand. The geolocation button needs JavaScript.